Home   Weather   Hofheim am Taunus   Past weeks
Flag for Germany

Past Weather in Hofheim am Taunus, Hesse, Germany — Yesterday and Last 2 Weeks

Now
41 °F

Clear.


Feels Like: 36 °F
Forecast: 49 / 27 °F
Wind: 7 mph from Northeast

Location: Wiesbaden Airport

Current Time: Mar 31, 2020 at 9:48:33 pm

Latest Report: Mar 31, 2020 at 8:56 pm


Visibility: N/A

Pressure: 30.35 "Hg

Humidity: 39%

Dew Point: 18 °F

Location of Hofheim am TaunusLocation

Past Weather in Hofheim am Taunus — Graph

°F

Hofheim am Taunus Temperature Yesterday

Maximum temperature yesterday: 50 °F (at 5:56 pm)
Minimum temperature yesterday: 30 °F (at 6:56 am)
Average temperature yesterday: 39 °F

High & Low Weather Summary for the Past Weeks

 TemperatureHumidityPressure
High66 °F (Mar 28, 3:56 pm)93% (Mar 18, 7:56 am)30.59 "Hg (Mar 18, 7:56 am)
Low30 °F (Mar 23, 4:56 am)15% (Mar 25, 3:56 pm)30.00 "Hg (Mar 27, 2:56 pm)
Average46 °F50%30.29 "Hg
* Reported Mar 16 6:06 pm — Mar 31 7:56 pm, Hofheim am Taunus. Weather by CustomWeather, © 2020

Note: Actual official high and low records may vary slightly from our data, if they occured in-between our weather recording intervals... More about our weather records

Hofheim am Taunus Weather History for the Previous 24 Hours

Scroll right to see more
 ConditionsComfort  
Time TempWeatherWind HumidityBarometerVisibility
7:56 pm
Tue, Mar 31
43 °FSunny.10 mph36%30.35 "HgN/A
6:56 pm46 °FSunny.13 mph32%30.33 "HgN/A
5:56 pm48 °FSunny.12 mph29%30.33 "HgN/A
4:56 pm48 °FSunny.7 mph31%30.34 "HgN/A
3:56 pm48 °FSunny.12 mph32%30.35 "HgN/A
2:56 pm47 °FSunny.15 mph33%30.36 "HgN/A
1:56 pm45 °FSunny.13 mph36%30.38 "HgN/A
12:56 pm45 °FSunny.14 mph39%30.39 "HgN/A
11:56 am43 °FSunny.12 mph41%30.40 "HgN/A
10:56 am43 °FSunny.17 mph53%30.40 "HgN/A
9:56 am42 °FSunny.14 mph56%30.40 "HgN/A
8:56 am40 °FPartly sunny.12 mph64%30.38 "HgN/A
7:56 am39 °FOvercast.12 mph70%30.36 "HgN/A
6:56 am39 °FPassing clouds.No wind70%30.34 "HgN/A
5:56 am39 °FPartly cloudy.8 mph67%30.32 "HgN/A
4:56 am39 °FOvercast.6 mph65%30.31 "HgN/A
3:56 am41 °FMostly cloudy.5 mph57%30.31 "HgN/A
2:56 am41 °FOvercast.3 mph56%30.31 "HgN/A
1:56 am40 °FMostly cloudy.3 mph57%30.31 "HgN/A
12:56 am41 °FMostly cloudy.No wind57%30.31 "HgN/A
11:56 pm
Mon, Mar 30
42 °FOvercast.6 mph50%30.31 "HgN/A
10:56 pm42 °FMostly cloudy.10 mph49%30.31 "HgN/A
9:56 pm41 °FPartly cloudy.5 mph53%30.32 "HgN/A
Weather by CustomWeather, © 2020

See weather overview

Advertising